User: anonymous   Login
Location: Observatorio Las Palmas
(29.0667°N, 110.9333°W)
Time: 11:05:56
(UTC-07:00)
Language:

Skynet4D Del rocket - Orbit

View from above orbital plane
View from above orbital plane
View from above satellite
View from above satellite

Ground track
Ground track

The orbit data is extracted from the following two-line orbital elements,

1 25135U 98002B   17058.90824205  .00000148  00000-0  31951-4 0  9992
2 25135  26.8850  15.1945 0356591  79.4374 326.7598 13.62346997953619
Epoch (UTC): 27 February 2017 21:47:52
Eccentricity: 0.0356591
inclination: 26.8850°
perigee height: 763 km
apogee height: 1291 km
right ascension of ascending node: 15.1945°
argument of perigee: 79.4374°
revolutions per day: 13.62346997
mean anomaly at epoch: 326.7598°
orbit number at epoch: 95361

The dashed part of the orbit path shows where the satellite is in the earth's shadow,  

DLR